sat.trackr.live / text

‹ back to catalog

ONEWEB-0404

NORAD 50484 · 2021-132R

PAYLOAD ACTIVE UNKNOWN

§ Identity

Operator
Country
UK
Launch date
2021-12-27
Launch site
TYMSC
Launch vehicle
Mass (kg)
RCS (m²)

Purposes: comms

External: N2YO · Heavens-Above · Gunter

§ Orbital elements

Epoch: 2026-05-25T03:17:41.557920Z

Period
109.81 min
Inclination
87.8909°
Eccentricity
0.0002043
Mean motion
13.11414940 rev/d
Perigee alt
1,216.1 km
Apogee alt
1,219.2 km
Semi-major
7,595.8 km
B*
-2.6994e-5
RAAN
25.6530°
Arg perigee
88.5221°
Mean anomaly
271.6141°
Rev number
21,267

§ Raw data

ONEWEB-04041 50484U 21132R   26145.13728655  .00000003  00000+0 -26994-4 0  99922 50484  87.8909  25.6530 0002043  88.5221 271.6141 13.11414940212678

JSON: /api/v1/satellites/50484 · /tle

For live sub-satellite position, see the globe view (requires WebGL).

§ Visibility from observer

Set your observer location to see the next 7 days of passes ≥ 10°. The values pass through the URL so the page stays shareable.

No JS? Fill the form by hand. The geolocation button needs JavaScript.